Change the Weather History Date:

Friday, November 9, 2012

  Actual Average Record
Temperature  
Mean Temperature 62 °F -  
Max Temperature 66 °F 68 °F 86 °F (1998)
Min Temperature 57 °F 47 °F 46 °F (2000)
Degree Days  
Heating Degree Days 4    
Growing Degree Days 12 (Base 50)    
Moisture  
Dew Point 56 °F    
Average Humidity 84    
Maximum Humidity 100    
Minimum Humidity 52    
Precipitation  
Precipitation 0.04 in 0.05 in - ()
Sea Level Pressure  
Sea Level Pressure 30.03 in    
Wind  
Wind Speed 5 mph ()    
Max Wind Speed 8 mph    
Max Gust Speed -    
Visibility 5.9 miles    
Events Rain    
Averages and records for this station are not official NWS values.
T = Trace of Precipitation, MM = Missing Value Source: Averaged Metar Reports

Daily Weather History Graph

Daily Weather History Graph

Search for Another Location

Airport or City:

Trip Planner

Search our weather history database for the weather conditions in past years. The results will help you decide how hot, cold, wet, or windy it might be!

Date:

Astronomy

Nov. 09, 2012 Rise Set
Actual Time 6:55 AM WET 5:36 PM WET
Civil Twilight 6:29 AM WET 6:01 PM WET
Nautical Twilight 6:00 AM WET 6:31 PM WET
Astronomical Twilight 5:31 AM WET 6:59 PM WET
Moon 1:57 AM WET (11/9) 2:26 PM WET (11/9)
Length of Visible Light 11h 32m
Length of Day
10h 41m
Waning Crescent, 25% of the Moon is Illuminated
Nov 9
Waning Crescent
Nov 13
New
Nov 20
First Quarter
Nov 28
Full
Dec 6
Last Quarter

Hourly Weather History & Observations

Time (WET) Temp. Dew Point Humidity Pressure Visibility Wind Dir Wind Speed Gust Speed Precip Events Conditions
12:00 AM 60 °F 60 °F 100% 30.01 in 5 mi WSW 5.8 mph - - Rain Light Rain
12:00 AM 60.8 °F 60.8 °F 100% 30.04 in 5.0 mi WSW 5.8 mph - N/A   Mostly Cloudy
12:30 AM 60.8 °F 60.8 °F 100% 30.04 in 6.2 mi WSW 5.8 mph - N/A   Mostly Cloudy
1:00 AM 60.8 °F 60.8 °F 100% 30.04 in 6.2 mi WSW 5.8 mph - N/A   Mostly Cloudy
1:30 AM 59.0 °F 59.0 °F 100% 30.01 in 6.2 mi WSW 5.8 mph - N/A   Mostly Cloudy
2:00 AM 59.0 °F 59.0 °F 100% 30.01 in 6.2 mi WSW 3.5 mph - N/A   Mostly Cloudy
2:30 AM 59.0 °F 57.2 °F 94% 30.01 in 6.2 mi WSW 3.5 mph - N/A   Mostly Cloudy
3:00 AM 59 °F 57 °F 92% 30.00 in 6 mi WSW 3.5 mph - -   Unknown Precipitation
3:00 AM 59.0 °F 57.2 °F 94% 30.01 in 6.2 mi WSW 3.5 mph - N/A   Mostly Cloudy
3:30 AM 59.0 °F 57.2 °F 94% 30.01 in 6.2 mi WSW 3.5 mph - N/A   Mostly Cloudy
4:00 AM 59.0 °F 59.0 °F 100% 30.01 in - WSW 3.5 mph - N/A   Mostly Cloudy
4:30 AM 59.0 °F 59.0 °F 100% 30.01 in 6.2 mi WSW 3.5 mph - N/A   Mostly Cloudy
5:00 AM 59.0 °F 59.0 °F 100% 30.01 in 6.2 mi WSW 3.5 mph - N/A   Mostly Cloudy
5:30 AM 59.0 °F 59.0 °F 100% 30.01 in 6.2 mi Variable 2.3 mph - N/A   Mostly Cloudy
6:00 AM 59 °F 59 °F 99% 30.01 in 6 mi SW 4.6 mph - -   Overcast
6:00 AM 59.0 °F 59.0 °F 100% 30.01 in 6.2 mi SW 4.6 mph - N/A   Mostly Cloudy
6:30 AM 59.0 °F 59.0 °F 100% 30.04 in 6.2 mi SW 4.6 mph - N/A   Mostly Cloudy
7:00 AM 59.0 °F 59.0 °F 100% 30.04 in 6.2 mi WSW 5.8 mph - N/A Rain Rain
7:30 AM 59.0 °F 59.0 °F 100% 30.04 in 3.7 mi West 5.8 mph - N/A Rain Rain
8:00 AM 59.0 °F 59.0 °F 100% 30.06 in 3.7 mi WSW 6.9 mph - N/A   Mostly Cloudy
8:30 AM 59.0 °F 59.0 °F 100% 30.06 in 3.7 mi West 5.8 mph - N/A   Mostly Cloudy
8:47 AM 59 °F 59 °F 98% 30.06 in 4 mi West 5.8 mph - - Rain Light Rain
9:00 AM 59.0 °F 59.0 °F 100% 30.06 in 3.7 mi West 5.8 mph - N/A   Mostly Cloudy
9:30 AM 59.0 °F 59.0 °F 100% 30.06 in 5.0 mi West 5.8 mph - N/A   Mostly Cloudy
10:00 AM 60.8 °F 59.0 °F 94% 30.06 in 5.0 mi West 4.6 mph - N/A   Mostly Cloudy
11:00 AM 62.6 °F 55.4 °F 77% 30.06 in 6.2 mi WSW 3.5 mph - N/A   Mostly Cloudy
11:30 AM 62.6 °F 55.4 °F 77% 30.06 in 6.2 mi SW 4.6 mph - N/A   Mostly Cloudy
12:00 PM 62 °F 53 °F 65% 30.02 in 6 mi West 4.6 mph - -   Unknown Precipitation
12:00 PM 62.6 °F 53.6 °F 72% 30.04 in 6.2 mi West 4.6 mph - N/A   Mostly Cloudy
12:30 PM 62.6 °F 53.6 °F 72% 30.04 in 6.2 mi NW 4.6 mph - N/A   Mostly Cloudy
1:00 PM 64.4 °F 53.6 °F 68% 30.04 in 6.2 mi WNW 6.9 mph - N/A   Mostly Cloudy
1:30 PM 66.2 °F 55.4 °F 68% 30.01 in 6.2 mi West 3.5 mph - N/A   Mostly Cloudy
2:00 PM 66.2 °F 55.4 °F 68% 30.01 in 6.2 mi WSW 5.8 mph - N/A   Mostly Cloudy
2:30 PM 64.4 °F 55.4 °F 73% 30.01 in 6.2 mi West 6.9 mph - N/A   Mostly Cloudy
3:00 PM 65 °F 51 °F 52% 29.97 in 6 mi WNW 4.6 mph - -   Unknown Precipitation
3:00 PM 66.2 °F 50.0 °F 56% 30.01 in 6.2 mi NW 6.9 mph - N/A   Mostly Cloudy
3:30 PM 66.2 °F 51.8 °F 60% 30.01 in 6.2 mi West 4.6 mph - N/A   Mostly Cloudy
4:00 PM 66.2 °F 51.8 °F 60% 30.01 in 6.2 mi West 5.8 mph - N/A   Mostly Cloudy
4:30 PM 66.2 °F 55.4 °F 68% 30.01 in 6.2 mi WSW 4.6 mph - N/A   Mostly Cloudy
5:00 PM 64.4 °F 53.6 °F 68% 30.01 in 6.2 mi WSW 5.8 mph - N/A   Mostly Cloudy
5:30 PM 64.4 °F 51.8 °F 64% 30.01 in 6.2 mi WSW 4.6 mph - N/A   Mostly Cloudy
6:00 PM 64 °F 54 °F 61% 29.99 in 6 mi WSW 3.5 mph - -   Unknown Precipitation
6:00 PM 64.4 °F 53.6 °F 68% 30.01 in 6.2 mi WSW 3.5 mph - N/A   Mostly Cloudy
6:30 PM 64.4 °F 53.6 °F 68% 30.01 in 6.2 mi SW 3.5 mph - N/A   Mostly Cloudy
7:00 PM 62.6 °F 53.6 °F 72% 30.01 in 6.2 mi SSW 3.5 mph - N/A   Mostly Cloudy
7:30 PM 62.6 °F 55.4 °F 77% 30.04 in 6.2 mi SW 3.5 mph - N/A   Mostly Cloudy
8:00 PM 62.6 °F 51.8 °F 68% 30.04 in 6.2 mi SW 5.8 mph - N/A   Mostly Cloudy
8:30 PM 62.6 °F 57.2 °F 82% 30.04 in 6.2 mi SW 6.9 mph - N/A   Mostly Cloudy
9:00 PM 61 °F 56 °F 77% 30.02 in 6 mi West 8.1 mph - -   Unknown Precipitation
9:00 PM 60.8 °F 55.4 °F 82% 30.04 in 6.2 mi West 6.9 mph - N/A   Mostly Cloudy
9:30 PM 60.8 °F 55.4 °F 82% 30.04 in 6.2 mi West 6.9 mph - N/A   Mostly Cloudy
10:00 PM 59.0 °F 55.4 °F 88% 30.04 in 6.2 mi West 4.6 mph - N/A   Mostly Cloudy
10:30 PM 59.0 °F 55.4 °F 88% 30.04 in 6.2 mi WSW 3.5 mph - N/A   Mostly Cloudy
11:00 PM 57.2 °F 55.4 °F 94% 30.04 in 6.2 mi WSW 3.5 mph - N/A   Mostly Cloudy
11:30 PM 57.2 °F 55.4 °F 94% 30.04 in 6.2 mi SW 3.5 mph - N/A   Mostly Cloudy